{"data":{"norad_id":58821,"intl_designator":"2024-016B","name":"TAIJING-1 03","alt_names":[],"object_type":"PAYLOAD","status":"ACTIVE","operator":null,"country":"PRC","launch_date":"2024-01-23","launch_site_code":"JSC","launch_vehicle":null,"mission":null,"orbit_class":"UNKNOWN","rcs_meters":null,"size_class":null,"mass_kg":null,"dimensions":null,"purposes":[],"wikipedia_slug":null,"has_3d_model":false,"image_url":null,"decayed_at":null,"tle_current":{"epoch":"2026-08-30T12:41:19.691232Z","epoch_age_seconds":2061980,"freshness":"OLD","line1":"1 58821U 24016B   26242.52870013  .11186211  25770-5  40457-3 0  9999","line2":"2 58821  97.4195 346.4111 0014578 271.9897  87.9734 16.42832281145970","mean_motion":16.42832281,"eccentricity":0.0014578,"inclination_deg":97.4195,"raan_deg":346.4111,"arg_perigee_deg":271.9897,"mean_anomaly_deg":87.9734,"bstar":0.00040457,"rev_number":14597,"period_min":87.653500400142,"perigee_km":148.75028696865,"apogee_km":167.80786167494,"semimajor_km":6536.4160743218,"source":"CELESTRAK","updated_at":"2026-08-31T09:00:23.306095Z"}}}